Location: Santiago
(33.4378°S, 70.6505°W)
Time: 06:45:03
(UTC+00:00)

ISS - Pass Details

Date: 16 June 2024
Orbit: 410 x 424 km, 51.6° (Epoch: 12 July)

Event Time Altitude Azimuth Distance (km) Brightness Sun altitude
Rises 21:46:29 0° 325° (NW) 2,376 1.3 -1.7°
Reaches altitude 10° 21:48:37 10° 330° (NNW) 1,514 0.1 -2.1°
Maximum altitude 21:51:56 51° 47° (NE) 542 -3.3 -2.7°
Drops below altitude 10° 21:55:16 10° 124° (SE) 1,522 -1.6 -3.4°
Enters shadow 21:56:29 - 127° (SE) 2,011 -1.0 -3.6°
